Date String (YYYY-MM-DD hh:mm:ss) UTC,Instrument flags,Ambient pressure (hPa),Sample flow (lpm),Bypass flow (lpm),Sample temperature (°C),Ambient temperature (°C),ASC tube jacket temperature (°C),LED temperature (°C),Box temperature (°C),Sample RH (%),Span deviation,Mass concentration (μg/m³),Mass concentration (μg/m³),Mass concentration (μg/m³)
DateTimeUTC,F1_M11,P_M11,Q1_M11,Q2_M11,T1_M11,T2_M11,T3_M11,T4_M11,T5_M11,U1_M11,ZSPAN_M11,X2_M11,X0_M11,X1_M11
2022-02-02 07:00:00,,0824.7,5.00,0.00,22.2,22.3,00.0,31.2,23.8,08.2,0000.0,0002.04,0003.27,0001.56
2022-02-02 07:01:00,,0824.6,5.01,0.00,22.3,23.0,00.0,31.3,24.1,08.2,0000.0,0002.01,0003.23,0001.54
2022-02-02 07:02:00,,0824.5,4.99,0.00,22.4,23.0,00.0,31.3,24.2,08.1,0000.0,0002.01,0003.19,0001.53
2022-02-02 07:03:00,,0824.5,5.00,0.00,22.4,22.7,00.0,31.3,24.2,08.1,0000.0,0001.95,0002.91,0001.51
2022-02-02 07:04:00,,0824.5,4.99,0.00,22.4,22.3,00.0,31.3,24.0,08.1,0000.0,0001.93,0002.81,0001.49
2022-02-02 07:05:00,,0824.4,4.99,0.00,22.3,22.0,00.0,31.3,23.9,08.1,0000.0,0001.97,0002.89,0001.49
2022-02-02 07:06:00,,0824.5,5.02,0.00,22.2,21.8,00.0,31.3,23.8,08.1,0000.0,0002.02,0002.98,0001.50
2022-02-02 07:07:00,,0824.4,4.99,0.00,22.2,21.6,00.0,31.3,23.8,08.2,0000.0,0002.03,0002.97,0001.53
2022-02-02 07:08:00,,0824.4,5.01,0.00,22.1,21.4,00.0,31.3,23.7,08.2,0000.0,0002.04,0002.96,0001.55
2022-02-02 07:09:00,,0824.4,4.99,0.00,22.2,21.8,00.0,31.3,23.8,08.2,0000.0,0002.06,0003.00,0001.57
2022-02-02 07:10:00,,0824.5,5.00,0.00,22.3,22.6,00.0,31.3,24.1,08.1,0000.0,0002.09,0003.36,0001.59
2022-02-02 07:11:00,,0824.5,4.99,0.00,22.4,23.2,00.0,31.3,24.3,08.1,0000.0,0002.12,0003.47,0001.61
2022-02-02 07:12:00,,0824.6,5.00,0.00,22.5,23.0,00.0,31.4,24.3,08.0,0000.0,0002.14,0003.53,0001.61
2022-02-02 07:13:00,,0824.6,5.01,0.00,22.5,22.6,00.0,31.4,24.2,08.0,0000.0,0002.21,0003.70,0001.61
2022-02-02 07:14:00,,0824.6,5.01,0.00,22.4,22.3,00.0,31.4,24.0,08.1,0000.0,0002.26,0003.80,0001.62
2022-02-02 07:15:00,,0824.5,4.99,0.00,22.3,22.0,00.0,31.3,23.9,08.1,0000.0,0002.25,0003.79,0001.63
2022-02-02 07:16:00,,0824.5,4.99,0.00,22.3,21.8,00.0,31.3,23.8,08.1,0000.0,0002.28,0003.93,0001.65
2022-02-02 07:17:00,,0824.5,5.02,0.00,22.2,21.6,00.0,31.3,23.7,08.1,0000.0,0002.28,0003.94,0001.67
2022-02-02 07:18:00,,0824.5,4.99,0.00,22.2,21.5,00.0,31.3,23.7,08.1,0000.0,0002.30,0003.97,0001.69
2022-02-02 07:19:00,,0824.6,5.01,0.00,22.2,22.1,00.0,31.3,23.9,08.1,0000.0,0002.29,0004.02,0001.70
2022-02-02 07:20:00,,0824.6,5.00,0.00,22.3,22.8,00.0,31.3,24.1,08.0,0000.0,0002.31,0004.07,0001.70
2022-02-02 07:21:00,,0824.6,5.01,0.00,22.5,23.1,00.0,31.4,24.3,07.9,0000.0,0002.29,0003.73,0001.70
2022-02-02 07:22:00,,0824.6,4.99,0.00,22.5,22.7,00.0,31.4,24.2,07.9,0000.0,0002.27,0003.58,0001.68
2022-02-02 07:23:00,,0824.6,5.01,0.00,22.4,22.4,00.0,31.4,24.1,07.9,0000.0,0002.25,0003.49,0001.68
2022-02-02 07:24:00,,0824.7,4.99,0.00,22.3,22.1,00.0,31.4,23.9,07.9,0000.0,0002.19,0003.40,0001.66
2022-02-02 07:25:00,,0824.6,4.99,0.00,22.3,21.8,00.0,31.3,23.8,07.9,0000.0,0002.14,0003.30,0001.65
2022-02-02 07:26:00,,0824.6,5.00,0.00,22.2,21.6,00.0,31.3,23.7,07.9,0000.0,0002.15,0003.38,0001.65
2022-02-02 07:27:00,,0824.6,5.02,0.00,22.1,21.5,00.0,31.3,23.6,07.9,0000.0,0002.11,0003.31,0001.64
2022-02-02 07:28:00,,0824.6,4.99,0.00,22.2,22.0,00.0,31.3,23.8,07.9,0000.0,0002.10,0003.28,0001.63
2022-02-02 07:29:00,,0824.6,5.00,0.00,22.3,22.8,00.0,31.3,24.1,07.8,0000.0,0002.11,0003.49,0001.61
2022-02-02 07:30:00,,0824.6,5.01,0.00,22.5,23.1,00.0,31.4,24.3,07.7,0000.0,0002.10,0003.75,0001.60
2022-02-02 07:31:00,,0824.6,4.99,0.00,22.5,22.7,00.0,31.4,24.2,07.7,0000.0,0002.08,0003.73,0001.59
2022-02-02 07:32:00,,0824.7,5.00,0.00,22.4,22.3,00.0,31.4,24.1,07.7,0000.0,0002.06,0003.72,0001.57
2022-02-02 07:33:00,,0824.6,4.99,0.00,22.3,22.0,00.0,31.4,24.0,07.7,0000.0,0002.06,0003.83,0001.58
2022-02-02 07:34:00,,0824.7,5.01,0.00,22.3,21.6,00.0,31.3,23.8,07.7,0000.0,0002.08,0004.07,0001.59
2022-02-02 07:35:00,,0824.7,5.00,0.00,22.2,21.3,00.0,31.3,23.7,07.8,0000.0,0002.08,0004.12,0001.60
2022-02-02 07:36:00,,0824.7,5.00,0.00,22.1,21.2,00.0,31.3,23.6,07.8,0000.0,0002.10,0004.20,0001.59
2022-02-02 07:37:00,,0824.7,5.00,0.00,22.1,21.8,00.0,31.3,23.7,07.8,0000.0,0002.09,0004.19,0001.58
2022-02-02 07:38:00,,0824.7,5.00,0.00,22.3,22.7,00.0,31.3,24.0,07.7,0000.0,0002.11,0004.19,0001.57
2022-02-02 07:39:00,,0824.6,4.99,0.00,22.4,23.1,00.0,31.3,24.2,07.7,0000.0,0002.10,0004.27,0001.55
2022-02-02 07:40:00,,0824.7,5.00,0.00,22.4,22.6,00.0,31.3,24.2,07.6,0000.0,0002.07,0004.12,0001.54
2022-02-02 07:41:00,,0824.6,5.01,0.00,22.4,22.2,00.0,31.3,24.0,07.7,0000.0,0002.06,0003.77,0001.53
2022-02-02 07:42:00,,0824.7,5.01,0.00,22.3,21.8,00.0,31.3,23.9,07.7,0000.0,0002.05,0003.73,0001.51
2022-02-02 07:43:00,,0824.6,4.99,0.00,22.2,21.4,00.0,31.3,23.8,07.7,0000.0,0002.01,0003.61,0001.49
2022-02-02 07:44:00,,0824.7,5.01,0.00,22.1,21.1,00.0,31.3,23.6,07.7,0000.0,0001.98,0003.55,0001.48
2022-02-02 07:45:00,,0824.8,5.00,0.00,22.0,20.9,00.0,31.2,23.5,07.8,0000.0,0001.97,0003.44,0001.46
2022-02-02 07:46:00,,0824.7,5.00,0.00,22.1,21.6,00.0,31.2,23.6,07.7,0000.0,0001.95,0003.34,0001.45
2022-02-02 07:47:00,,0824.7,5.00,0.00,22.2,22.5,00.0,31.3,23.9,07.7,0000.0,0001.93,0003.25,0001.46
2022-02-02 07:48:00,,0824.8,5.00,0.00,22.3,23.0,00.0,31.3,24.1,07.6,0000.0,0001.91,0003.19,0001.47
2022-02-02 07:49:00,,0824.8,5.01,0.00,22.3,22.5,00.0,31.3,24.1,07.6,0000.0,0001.89,0003.05,0001.47
2022-02-02 07:50:00,,0824.7,4.99,0.00,22.3,22.1,00.0,31.3,24.0,07.6,0000.0,0001.90,0002.95,0001.47
2022-02-02 07:51:00,,0824.7,5.00,0.00,22.2,21.7,00.0,31.3,23.9,07.6,0000.0,0001.88,0002.87,0001.48
2022-02-02 07:52:00,,0824.7,5.01,0.00,22.2,21.4,00.0,31.2,23.7,07.7,0000.0,0001.86,0002.81,0001.48
2022-02-02 07:53:00,,0824.6,4.99,0.00,22.1,21.1,00.0,31.2,23.6,07.7,0000.0,0001.88,0003.12,0001.49
2022-02-02 07:54:00,,0824.6,5.02,0.00,22.0,20.9,00.0,31.2,23.5,07.7,0000.0,0001.93,0003.73,0001.51
2022-02-02 07:55:00,,0824.8,4.99,0.00,21.9,21.0,00.0,31.1,23.4,07.8,0000.0,0001.97,0003.71,0001.52
2022-02-02 07:56:00,,0824.7,5.01,0.00,22.0,21.9,00.0,31.2,23.7,07.7,0000.0,0001.98,0003.69,0001.52
2022-02-02 07:57:00,,0824.7,4.98,0.00,22.2,22.8,00.0,31.2,24.0,07.7,0000.0,0002.02,0003.78,0001.53
2022-02-02 07:58:00,,0824.7,5.00,0.00,22.3,22.9,00.0,31.2,24.1,07.6,0000.0,0002.03,0003.79,0001.54
2022-02-02 07:59:00,,0824.6,5.00,0.00,22.3,22.4,00.0,31.2,24.0,07.6,0000.0,0002.02,0003.79,0001.53
